Location: Buch
(49.7331°N, 12.1098°E)
Time: 00:45:29
(UTC+00:00)

deb Kosmos-1763 - Pass Details

Date: 12 May 2021
Orbit: 447 x 457 km, 74.0° (Epoch: 18 June)

Event Time Altitude Azimuth Distance (km) Brightness Sun altitude
Rises 20:03:35 0° 337° (NNW) 2,490 9.1 -10.7°
Reaches altitude 10° 20:05:41 10° 339° (NNW) 1,614 7.9 -10.9°
Maximum altitude 20:09:14 74° 65° (ENE) 484 4.0 -11.3°
Enters shadow 20:11:46 18° 150° (SSE) 1,197 5.4 -11.6°
